Grosse Ile, MI

8:04 PM EDT on May 25, 2017 (GMT -0400)
Grosse Ile Municipal

Weather History for KONZ - January, 2013

Change the Weather History Date:

Friday, January 18, 2013

  Actual Average (KDTW) Record (KDTW)
Temperature  
Mean Temperature 27 °F -  
Max Temperature 35 °F 30 °F 58 °F (1973)
Min Temperature 19 °F 15 °F -18 °F (1976)
Degree Days  
Heating Degree Days 38    
Moisture  
Dew Point 15 °F    
Average Humidity 57    
Maximum Humidity 70    
Minimum Humidity 46    
Precipitation  
Precipitation 0.00 in - - ()
Sea Level Pressure  
Sea Level Pressure 30.27 in    
Wind  
Wind Speed 10 mph (SW)    
Max Wind Speed 25 mph    
Max Gust Speed 32 mph    
Visibility 10 miles    
Events      
Averages and records for this station are not official NWS values.
T = Trace of Precipitation, MM = Missing Value Source: NWS Daily Summary

Daily Weather History Graph

Daily Weather History Graph

Search for Another Location

Airport or City:

Trip Planner

Search our weather history database for the weather conditions in past years. The results will help you decide how hot, cold, wet, or windy it might be!

Date:

Astronomy

Jan. 18, 2013 Rise Set
Actual Time 7:56 AM EST 5:29 PM EST
Civil Twilight 7:26 AM EST 6:00 PM EST
Nautical Twilight 6:51 AM EST 6:34 PM EST
Astronomical Twilight 6:18 AM EST 7:08 PM EST
Moon 11:25 AM EST (1/18) 12:27 AM EST (1/18)
Length of Visible Light 10h 34m
Length of Day
9h 33m
Waxing Crescent, 47% of the Moon is Illuminated
Jan 18
Waxing Crescent
Jan 18
First Quarter
Jan 26
Full
Feb 3
Last Quarter
Feb 10
New

Hourly Weather History & Observations

Time (EST) Temp. Windchill Dew Point Humidity Pressure Visibility Wind Dir Wind Speed Gust Speed Precip Events Conditions
12:14 AM 21.2 °F 12.6 °F 3.2 °F 46% 30.31 in 10.0 mi WNW 6.9 mph - N/A   Overcast
12:34 AM 21.2 °F 9.5 °F 5.0 °F 50% 30.31 in 10.0 mi NW 11.5 mph - N/A   Overcast
12:54 AM 21.2 °F 10.9 °F 6.8 °F 54% 30.32 in 10.0 mi NW 9.2 mph - N/A   Mostly Cloudy
1:14 AM 19.4 °F 10.4 °F 6.8 °F 58% 30.34 in 10.0 mi NW 6.9 mph - N/A   Scattered Clouds
1:35 AM 19.4 °F 7.9 °F 6.8 °F 58% 30.34 in 10.0 mi NW 10.4 mph - N/A   Clear
1:54 AM 21.2 °F 11.7 °F 6.8 °F 54% 30.36 in 10.0 mi WNW 8.1 mph - N/A   Mostly Cloudy
2:14 AM 21.2 °F 12.6 °F 6.8 °F 54% 30.37 in 10.0 mi NW 6.9 mph - N/A   Overcast
2:35 AM 21.2 °F 13.6 °F 6.8 °F 54% 30.37 in 10.0 mi NW 5.8 mph - N/A   Overcast
2:54 AM 21.2 °F - 6.8 °F 54% 30.38 in 10.0 mi Calm Calm - N/A   Overcast
3:14 AM 21.2 °F 16.4 °F 8.6 °F 58% 30.39 in 10.0 mi WNW 3.5 mph - N/A   Overcast
3:34 AM 21.2 °F 14.9 °F 8.6 °F 58% 30.40 in 10.0 mi NW 4.6 mph - N/A   Overcast
3:54 AM 21.2 °F 11.7 °F 8.6 °F 58% 30.40 in 10.0 mi WNW 8.1 mph - N/A   Overcast
4:14 AM 21.2 °F 11.7 °F 8.6 °F 58% 30.39 in 10.0 mi WNW 8.1 mph - N/A   Overcast
4:34 AM 21.2 °F 16.4 °F 8.6 °F 58% 30.39 in 10.0 mi WNW 3.5 mph - N/A   Overcast
4:54 AM 21.2 °F 12.6 °F 8.6 °F 58% 30.39 in 10.0 mi WNW 6.9 mph - N/A   Overcast
5:14 AM 21.2 °F 16.4 °F 8.6 °F 58% 30.39 in 10.0 mi WNW 3.5 mph - N/A   Overcast
5:34 AM 19.4 °F 14.3 °F 8.6 °F 63% 30.40 in 10.0 mi WNW 3.5 mph - N/A   Mostly Cloudy
5:54 AM 19.4 °F - 8.6 °F 63% 30.41 in 10.0 mi Calm Calm - N/A   Mostly Cloudy
6:14 AM 21.2 °F 16.4 °F 8.6 °F 58% 30.41 in 10.0 mi West 3.5 mph - N/A   Mostly Cloudy
6:34 AM 21.2 °F - 8.6 °F 58% 30.41 in 10.0 mi Calm Calm - N/A   Overcast
6:54 AM 21.2 °F 16.4 °F 8.6 °F 58% 30.41 in 10.0 mi WNW 3.5 mph - N/A   Overcast
7:15 AM 21.2 °F 16.4 °F 8.6 °F 58% 30.42 in 10.0 mi WNW 3.5 mph - N/A   Overcast
7:34 AM 21.2 °F - 8.6 °F 58% 30.42 in 10.0 mi Calm Calm - N/A   Overcast
7:54 AM 21.2 °F - 8.6 °F 58% 30.43 in 10.0 mi Calm Calm - N/A   Mostly Cloudy
8:14 AM 21.2 °F - 8.6 °F 58% 30.42 in 10.0 mi Calm Calm - N/A   Mostly Cloudy
8:34 AM 21.2 °F - 8.6 °F 58% 30.42 in 10.0 mi Calm Calm - N/A   Mostly Cloudy
8:55 AM 21.2 °F - 8.6 °F 58% 30.42 in 10.0 mi Calm Calm - N/A   Scattered Clouds
9:14 AM 23.0 °F - 8.6 °F 54% 30.42 in 10.0 mi Calm Calm - N/A   Clear
9:34 AM 24.8 °F 19.1 °F 10.4 °F 54% 30.43 in 10.0 mi South 4.6 mph - N/A   Clear
9:55 AM 24.8 °F 16.9 °F 10.4 °F 54% 30.43 in 10.0 mi South 6.9 mph - N/A   Scattered Clouds
10:14 AM 24.8 °F 16.9 °F 12.2 °F 59% 30.42 in 10.0 mi SSE 6.9 mph - N/A   Mostly Cloudy
10:34 AM 24.8 °F 14.0 °F 15.8 °F 69% 30.41 in 10.0 mi South 11.5 mph - N/A   Overcast
10:54 AM 26.6 °F 16.8 °F 17.6 °F 69% 30.41 in 10.0 mi South 10.4 mph - N/A   Mostly Cloudy
11:14 AM 28.4 °F 17.5 °F 19.4 °F 69% 30.40 in 10.0 mi South 13.8 mph - N/A   Mostly Cloudy
11:34 AM 28.4 °F 18.0 °F 19.4 °F 69% 30.38 in 10.0 mi South 12.7 mph - N/A   Mostly Cloudy
11:54 AM 28.4 °F 17.0 °F 19.4 °F 69% 30.37 in 10.0 mi South 15.0 mph - N/A   Mostly Cloudy
12:14 PM 30.2 °F 20.2 °F 17.6 °F 60% 30.36 in 10.0 mi SSW 12.7 mph 17.3 mph N/A   Mostly Cloudy
12:35 PM 30.2 °F 20.2 °F 17.6 °F 60% 30.33 in 10.0 mi SSW 12.7 mph - N/A   Overcast
12:54 PM 30.2 °F 20.2 °F 15.8 °F 55% 30.32 in 10.0 mi SW 12.7 mph 19.6 mph N/A   Overcast
1:14 PM 30.2 °F 20.8 °F 15.8 °F 55% 30.31 in 10.0 mi SSW 11.5 mph - N/A   Overcast
1:35 PM 30.2 °F 19.3 °F 15.8 °F 55% 30.28 in 10.0 mi SSW 15.0 mph 18.4 mph N/A   Mostly Cloudy
1:54 PM 32.0 °F 22.1 °F 15.8 °F 51% 30.26 in 10.0 mi SSW 13.8 mph - N/A   Overcast
2:14 PM 33.8 °F 23.2 °F 17.6 °F 52% 30.26 in 10.0 mi SSW 17.3 mph - N/A   Mostly Cloudy
2:34 PM 30.2 °F 18.5 °F 17.6 °F 60% 30.24 in 10.0 mi SSW 17.3 mph 25.3 mph N/A   Overcast
2:54 PM 33.8 °F 23.2 °F 19.4 °F 56% 30.23 in 10.0 mi SSW 17.3 mph 25.3 mph N/A   Mostly Cloudy
3:15 PM 33.8 °F 22.8 °F 19.4 °F 56% 30.22 in 10.0 mi South 18.4 mph 25.3 mph N/A   Scattered Clouds
3:34 PM 32.0 °F 20.1 °F 19.4 °F 60% 30.21 in 10.0 mi SSW 19.6 mph 24.2 mph N/A   Scattered Clouds
3:54 PM 33.8 °F 21.9 °F 19.4 °F 56% 30.19 in 10.0 mi SSW 21.9 mph 27.6 mph N/A   Clear
4:14 PM 33.8 °F 21.6 °F 19.4 °F 56% 30.18 in 10.0 mi SSW 23.0 mph 29.9 mph N/A   Clear
4:34 PM 33.8 °F 21.9 °F 19.4 °F 56% 30.17 in 10.0 mi SSW 21.9 mph 29.9 mph N/A   Clear
4:54 PM 33.8 °F 21.6 °F 21.2 °F 60% 30.16 in 10.0 mi SSW 23.0 mph 29.9 mph N/A   Scattered Clouds
5:14 PM 33.8 °F 21.9 °F 21.2 °F 60% 30.15 in 10.0 mi SSW 21.9 mph 25.3 mph N/A   Scattered Clouds
5:34 PM 33.8 °F 21.9 °F 21.2 °F 60% 30.14 in 10.0 mi SSW 21.9 mph - N/A   Scattered Clouds
5:54 PM 33.8 °F 22.8 °F 24.8 °F 70% 30.13 in 10.0 mi SSW 18.4 mph 28.8 mph N/A   Scattered Clouds
6:14 PM 33.8 °F 22.2 °F 23.0 °F 65% 30.12 in 10.0 mi SSW 20.7 mph 25.3 mph N/A   Clear
6:34 PM 33.8 °F 22.2 °F 21.2 °F 60% 30.11 in 10.0 mi SSW 20.7 mph 26.5 mph N/A   Clear
6:55 PM 33.8 °F 22.5 °F 21.2 °F 60% 30.10 in 10.0 mi SSW 19.6 mph 29.9 mph N/A   Clear
7:14 PM 35.6 °F 24.2 °F 21.2 °F 56% 30.09 in 10.0 mi SSW 21.9 mph 32.2 mph N/A   Clear
7:34 PM 35.6 °F 23.4 °F 19.4 °F 52% 30.08 in 10.0 mi SSW 25.3 mph 32.2 mph N/A   Clear
7:55 PM 35.6 °F 24.0 °F 21.2 °F 56% 30.07 in 10.0 mi SSW 23.0 mph 31.1 mph N/A   Clear
8:14 PM 35.6 °F 24.0 °F 19.4 °F 52% 30.06 in 10.0 mi SSW 23.0 mph 31.1 mph N/A   Scattered Clouds
8:34 PM 35.6 °F 24.8 °F 21.2 °F 56% 30.04 in 10.0 mi SSW 19.6 mph 31.1 mph N/A   Mostly Cloudy
8:55 PM 35.6 °F 24.5 °F 21.2 °F 56% 30.04 in 10.0 mi SSW 20.7 mph 29.9 mph N/A   Scattered Clouds
9:14 PM 35.6 °F 24.5 °F 19.4 °F 52% 30.03 in 10.0 mi SSW 20.7 mph 31.1 mph N/A   Clear
9:34 PM 35.6 °F 25.5 °F 19.4 °F 52% 30.03 in 10.0 mi SSW 17.3 mph 26.5 mph N/A   Clear
9:54 PM 35.6 °F 25.2 °F 19.4 °F 52% 30.04 in 10.0 mi SSW 18.4 mph 24.2 mph N/A   Clear
10:14 PM 35.6 °F 25.5 °F 19.4 °F 52% 30.03 in 10.0 mi SSW 17.3 mph 28.8 mph N/A   Clear
10:34 PM 35.6 °F 25.5 °F 19.4 °F 52% 30.02 in 10.0 mi SSW 17.3 mph 23.0 mph N/A   Clear
10:54 PM 35.6 °F 26.6 °F 19.4 °F 52% 30.02 in 10.0 mi SW 13.8 mph 20.7 mph N/A   Clear
11:14 PM 35.6 °F 26.6 °F 19.4 °F 52% 30.01 in 10.0 mi SSW 13.8 mph 20.7 mph N/A   Clear
11:34 PM 35.6 °F 26.2 °F 21.2 °F 56% 30.00 in 10.0 mi SW 15.0 mph 20.7 mph N/A   Clear
11:54 PM 35.6 °F 27.1 °F 21.2 °F 56% 30.00 in 10.0 mi SSW 12.7 mph - N/A   Clear